星链-6092 (STARLINK-6092 )

导读

STARLINK-6092是美国SpaceX星链互联网卫星星座的一员,于2023年3月29日发射升空,主要为全球偏远地区、高延迟网络覆盖不佳区域提供高速卫星互联网接入服务。它作为低轨卫星运行在近地轨道,可降低通信延迟,补充地面网络覆盖盲区,推进星链星座全球组网,也可支持星链军民两用服务场景。

Basic Information
目录编号:
56121
目录名称:
STARLINK-6092
国际标识:
2023-046AE
轨道中心:
EARTH
卫星名称:
星链-6092
卫星全名:
星链-6092 (STARLINK-6092 )
卫星状态:
在轨 (已飞行1255 天)
发射日期:
2023-03-29 UTC
国别 :
美国 (US)
星等 :
--
Orbit Information
数据来源 国际轨道数据 AOE轨道数据
星历时间 2026-09-04T07:19:32+0800
16小时前
查看轨道信息
2026-09-04T00:00:00+0800
1天前
查看轨道信息
半长轴 6861.203km 6861.142km
偏心率 0.0001009 0.0000046
轨道倾角 43.004° 43.002°
近地点辐角 275.248° 294.813°
升交点赤经 220.357° 222.084°
平近点角 84.826° 184.743°
近地点 482.373km 482.973km
远地点 483.759km 483.037km
周期 94.267分钟 94.266分钟
每日圈数 15.275746 15.275949
Detailed Information
固有亮度:
5
最大亮度:
2.5
卫星平台:
Starlink v1.5
覆盖范围:
全球
运营商:
太空探索技术公司
运营商所在国:
美国
制造商(研发单位):
太空探索技术公司
制造商所在国:
美国
使用方式:
暂无
Satellite Introduction
星链(Starlink)计划是由太空探索技术公司(SpaceX)提出的一个巨型低轨卫星互联网星座项目,计划在2019年至2024年间在太空搭建由约1.2万颗卫星组成的“星链”网络,其中1584颗将部署在地球上空550千米处的近地轨道,并从2020年开始工作。该卫星仍在工作。
2D Orbit Map
3D Orbit Map
Orbit Altitude Analysis Chart
Orbit Inclination Analysis Chart
Orbit Comprehensive Analysis Chart
View Comprehensive Chart
Conjunction Data List
Event ID Objects TCA Miss Dist (km) Collision Risk Probability Collision Risk Index (CRI) Action
CDM_260831-073205-612106-399422
2026-08-31T
07:32:13+0000
0.126 km
中距离
1.003119E-3 极高风险 0.95
CDM_260906-200905-612106-793021
2026-09-06T
20:09:19+0000
0.790 km
远距离
3.821381E-5 中风险 0.67
CDM_260906-183505-612106-793021
2026-09-06T
18:35:10+0000
1.106 km
极远距离
1.222568E-5 中风险 0.57
CDM_260905-135904-283905-612122
2026-09-05T
13:59:43+0000
2.536 km
极远距离
1.639664E-6 低风险 0.39
CDM_260905-091505-306605-612121
2026-09-05T
09:15:17+0000
2.641 km
极远距离
1.54385E-6 低风险 0.39
CDM_260906-214305-612106-793021
2026-09-06T
21:43:29+0000
2.699 km
极远距离
1.071138E-6 低风险 0.36
CDM_260906-170105-612106-793021
2026-09-06T
17:01:01+0000
2.939 km
极远距离
9.577617E-7 极低风险 0.35